Miscellaneous Local Product
Issued by NWS North Platte, NE

Home | Current Version | Previous Version | Graphics & Text | Print | Product List | Glossary On
Versions: 1 2 3 4 5 6 7 8 9 10 11 12 13 14 15 16 17 18 19 20 21 22 23 24 25 26 27 28 29 30 31 32 33 34 35 36 37 38 39 40 41 42 43 44 45 46 47 48 49 50
000
AXUS43 KLBF 300110
MISLBF


WESTERN AND NORTH CENTRAL NEBRASKA HOURLY WEATHER ROUNDUP
NATIONAL WEATHER SERVICE NORTH PLATTE NE
700 PM CST THU JAN 29 2015

***STATIONS NOT REPORTING VARIABLES SUCH AS SKY/WEATHER OR
PRESSURE ARE PROVIDED BY THE NEBRASKA DEPARTMENT OF
ROADS...RAWS...AND APRS NETWORKS...AND ARE NOT UNDER
NATIONAL WEATHER SERVICE QUALITY CONTROL***

...OBSERVATIONS IN AND NEAR THE EASTERN PANHANDLE OF NEBRASKA...

CITY           SKY/WX    TMP DP  RH WIND       PRES   REMARKS
PINE RIDGE     CLEAR     27  11  51 E7        30.41S WCI  19
CHADRON        CLEAR     31  20  63 SE7       30.40F WCI  24
ALLIANCE       CLEAR     27  17  66 SE5       30.42R WCI  22
SIDNEY         PTCLDY    29  16  58 SE8       30.42F WCI  21
WHITECLAY        N/A     27  12  54 SE3         N/A
CRESCENT LAKE    N/A     36   8  31 E3          N/A
LISCO            N/A     35  12  38 E7          N/A  WCI  30
LEWELLEN         N/A     34  10  37 S8          N/A  WCI  27
$$

...OBSERVATIONS IN NORTH CENTRAL NEBRASKA...

CITY           SKY/WX    TMP DP  RH WIND       PRES   REMARKS
VALENTINE      CLEAR     34  19  54 NE5       30.45R WCI  30
THEDFORD       CLEAR     33  19  55 CALM      30.46S
AINSWORTH      CLEAR     28  21  72 NE3       30.45S
O`NEILL        CLEAR     31  23  73 NE3       30.48S
ORD            CLEAR     30  19  63 CALM      30.48R
BROKEN BOW     CLEAR     27  17  66 N3        30.47R
BROWNLEE         N/A     36  16  44 NW3         N/A
VALENTINE NWR    N/A     33  14  46 CALM        N/A
SPRINGVIEW       N/A     29  20  70 CALM        N/A
BREWSTER         N/A     36  20  52 CALM        N/A
ROSE             N/A     37  26  63 CALM        N/A
NEWPORT          N/A     34  24  66 CALM        N/A
SARGENT          N/A     32  21  64 CALM        N/A
COMSTOCK         N/A     36  21  53 CALM        N/A
CHAMBERS         N/A     29  16  58 CALM        N/A
EWING            N/A     29  23  78 CALM        N/A
$$

...OBSERVATIONS IN SOUTHWEST NEBRASKA AND FAR NORTHEAST COLORADO...

CITY           SKY/WX    TMP DP  RH WIND       PRES   REMARKS
WRAY           FAIR      37  18  44 E5        30.45F WCI  34
HOLYOKE        FAIR      34  19  55 E6        30.45S WCI  29
IMPERIAL       PTCLDY    34  18  52 CALM      30.47S
OGALLALA       PTCLDY    27  17  64 CALM      30.46S
NORTH PLATTE   CLEAR     30  14  51 CALM      30.47R
MCCOOK         CLEAR     37  20  50 NW5       30.48R WCI  33
LEXINGTON      CLEAR     30  18  61 CALM      30.48S
BRADY            N/A     33  19  56 CALM        N/A
GOTHENBURG       N/A     36  17  47 CALM        N/A
CALLAWAY         N/A     26  18  70 CALM        N/A
$$

...NORTH PLATTE AREA...

CITY           SKY/WX    TMP DP  RH WIND       PRES   REMARKS
AIRPORT        CLEAR     30  14  51 CALM      30.47R
DOWNTOWN         N/A     34  15  46 CALM        N/A
$$

...SOME WEATHER OBSERVATIONS FROM AROUND THE REGION...

CITY           SKY/WX    TMP DP  RH WIND       PRES   REMARKS
DENVER         MOCLDY    38  27  64 SE12      30.38F WCI  30
LARAMIE        MOCLDY    30  23  75 SE12      30.33F WCI  20
CHEYENNE       MOCLDY    36  21  54 S10       30.37S WCI  28
SCOTTSBLUFF    PTCLDY    32  24  72 E7        30.40F WCI  26
RAPID CITY     CLEAR     33  14  45 E3        30.39S
PIERRE         CLEAR     26  19  74 E6        30.46R WCI  19
WINNER         FAIR      33  20  58 NE5       30.47R WCI  29
SIOUX FALLS    CLOUDY    25  18  74 N12       30.50R WCI  14
OMAHA          MOCLDY    34  24  67 N14       30.49R WCI  25
GRAND ISLAND   CLEAR     30  19  63 CALM      30.50R
KANSAS CITY    CLEAR     32  24  72 NW6       30.47R WCI  26
WICHITA        CLEAR     43  25  49 N8        30.49R
HAYS           PTCLDY    37  18  44 N6        30.50S WCI  33
LIBERAL        MOCLDY    43  21  42 NE6       30.50S
GOODLAND       MOCLDY    32  20  61 E7        30.47S WCI  26
$$



USA.gov is the U.S. government's official web portal to all federal, state and local government web resources and services.